HUANJING 1A (HJ-1A)
Last updated on Mon Jun 22 2026 00:02:51 GMT+0000 (Coordinated Universal Time)
1 33320U 08041A 26172.54910723 .00000719 00000+0 92209-4 0 9995
2 33320 97.6688 158.2194 0020258 121.0821 239.2385 14.83994384959052
Next 0 passes for location: London (51.5072 / 0.1276)
No passes found over London.